P. Meadows Coastal Station, British Columbia

9:21 PM PST on December 03, 2016 (GMT -0800)
Pitt Meadows

Weather History for CWMM - September, 2012

Change the Weather History Date:

Sunday, September 23, 2012

  Actual Average Record
Temperature  
Mean Temperature 60 °F -  
Max Temperature 68 °F - - ()
Min Temperature 52 °F - - ()
Degree Days  
Heating Degree Days 5    
Growing Degree Days 10 (Base 50)    
Moisture  
Dew Point 51 °F    
Average Humidity 75    
Maximum Humidity 92    
Minimum Humidity 48    
Precipitation  
Precipitation 0.00 in - - ()
Sea Level Pressure  
Sea Level Pressure 30.15 in    
Wind  
Wind Speed 1 mph ()    
Max Wind Speed 6 mph    
Max Gust Speed -    
T = Trace of Precipitation, MM = Missing Value Source: Averaged Metar Reports

Daily Weather History Graph

Daily Weather History Graph

Search for Another Location

Airport or City:

Trip Planner

Search our weather history database for the weather conditions in past years. The results will help you decide how hot, cold, wet, or windy it might be!

Date:

Astronomy

Sep. 23, 2012 Rise Set
Actual Time 6:59 AM PDT 7:05 PM PDT
Civil Twilight 6:27 AM PDT 7:36 PM PDT
Nautical Twilight 5:50 AM PDT 8:14 PM PDT
Astronomical Twilight 5:11 AM PDT 8:52 PM PDT
Moon 3:38 PM PDT (9/23) No Moon Set
Length of Visible Light 13h 09m
Length of Day
12h 05m
First Quarter, 61% of the Moon is Illuminated
Sep 23
First Quarter
Sep 29
Full
Oct 8
Last Quarter
Oct 15
New
Oct 21
First Quarter

Hourly Weather History & Observations

Time (PDT) Temp. Dew Point Humidity Pressure Visibility Wind Dir Wind Speed Gust Speed Precip Events Conditions
12:00 AM 57.2 °F 50.5 °F 78% 30.14 in - Calm Calm - N/A   Unknown
1:00 AM 56.8 °F 50.2 °F 78% 30.14 in - Calm Calm - N/A   Unknown
2:00 AM 57.0 °F 51.4 °F 82% 30.14 in - Calm Calm - N/A   Unknown
3:00 AM 56.3 °F 51.3 °F 83% 30.14 in - Calm Calm - N/A   Unknown
4:00 AM 56.7 °F 49.6 °F 77% 30.15 in - SE 1.2 mph - N/A   Unknown
5:00 AM 56 °F 51 °F 77% 30.16 in - Calm Calm - -  
5:00 AM 55.8 °F 50.9 °F 84% 30.16 in - Calm Calm - N/A   Unknown
6:00 AM 55.9 °F 51.3 °F 84% 30.16 in - East 1.2 mph - N/A   Unknown
7:00 AM 55.6 °F 50.9 °F 84% 30.17 in - Calm Calm - N/A   Unknown
8:00 AM 56.1 °F 51.8 °F 85% 30.17 in - Calm Calm - N/A   Unknown
9:00 AM 57.0 °F 52.0 °F 83% 30.17 in - SSW 1.2 mph - N/A   Unknown
10:00 AM 58.5 °F 52.5 °F 81% 30.17 in - SSW 1.2 mph - N/A   Unknown
11:00 AM 60 °F 53 °F 70% 30.18 in - South 2.3 mph - -  
11:00 AM 60.1 °F 52.9 °F 77% 30.18 in - South 2.3 mph - N/A   Unknown
12:00 PM 63.0 °F 52.7 °F 69% 30.17 in - South 1.2 mph - N/A   Unknown
1:00 PM 65.7 °F 51.8 °F 61% 30.16 in - SSW 2.3 mph - N/A   Unknown
2:00 PM 66.0 °F 50.9 °F 58% 30.14 in - South 3.5 mph - N/A   Unknown
3:00 PM 67.3 °F 53.1 °F 60% 30.13 in - SW 2.3 mph - N/A   Unknown
4:00 PM 66.6 °F 52.5 °F 61% 30.12 in - South 3.5 mph - N/A   Unknown
5:00 PM 67 °F 52 °F 48% 30.12 in - West 5.8 mph - -  
5:00 PM 66.9 °F 51.8 °F 58% 30.12 in - West 5.8 mph - N/A   Unknown
6:00 PM 65.1 °F 51.6 °F 62% 30.12 in - South 3.5 mph - N/A   Unknown
7:00 PM 61.9 °F 51.6 °F 69% 30.12 in - South 3.5 mph - N/A   Unknown
8:00 PM 59.7 °F 51.8 °F 75% 30.13 in - SSW 2.3 mph - N/A   Unknown
9:00 PM 55.2 °F 50.0 °F 83% 30.14 in - SE 3.5 mph - N/A   Unknown
10:00 PM 54.1 °F 49.5 °F 84% 30.15 in - Calm Calm - N/A   Unknown
11:00 PM 52 °F 50 °F 90% 30.16 in - Calm Calm - -  
11:00 PM 52.2 °F 50.0 °F 92% 30.16 in - Calm Calm - N/A   Unknown